Stations météo

réclame
Mon MeteoGroup
Northolt, Grande-Bretagne (3672): Température de l'air & dewpoint: 12.10.2017 10:00:00 - 18.10.2017 10:00:00 (BST)Northolt, Grande-Bretagne (3672): Température de l'air -20cm & Température de l'air -100cm: 12.10.2017 10:00:00 - 18.10.2017 10:00:00 (BST)Northolt, Grande-Bretagne (3672): Vitesse du vent & gusts: 12.10.2017 10:00:00 - 18.10.2017 10:00:00 (BST)Northolt, Grande-Bretagne (3672): Direction du vent: 12.10.2017 10:00:00 - 18.10.2017 10:00:00 (BST)Northolt, Grande-Bretagne (3672): reduced air pressure: 12.10.2017 10:00:00 - 18.10.2017 10:00:00 (BST)Northolt, Grande-Bretagne (3672): visibility: 12.10.2017 10:00:00 - 18.10.2017 10:00:00 (BST)Northolt, Grande-Bretagne (3672): Quantités de précipitations: 12.10.2017 10:00:00 - 18.10.2017 10:00:00 (BST)
Date & Time tt [°C] td [°C] tt -20cm [°C] tt -100cm [°C] ff [km/h] ff [knt] fx [km/h] fx [knt] dd ppp [hPa] vv [km] rr [mm]
18.10.2017 10:00:00 11,8 9,6 - - 9 5 - - ENE 1012,2 10 -
18.10.2017 09:00:00 11,4 9,6 - - 11 6 - - ENE 1012,4 10 0,2
18.10.2017 08:00:00 11,4 9,0 - - 13 7 - - ENE 1012,4 10 0,0
18.10.2017 07:00:00 11,3 9,3 - - 13 7 - - NE 1012,5 10 0,0
18.10.2017 06:00:00 11,4 9,4 - - 15 8 - - NE 1012,9 10 0,0
18.10.2017 05:00:00 11,4 9,5 - - 13 7 - - NE 1013,4 10 0,0
18.10.2017 04:00:00 11,6 9,2 - - 11 6 - - NE 1013,9 10 0,0
18.10.2017 03:00:00 11,5 9,5 - - 9 5 - - NE 1014,4 10 0,0
18.10.2017 02:00:00 11,3 9,5 - - 11 6 - - NNE 1015,1 10 0,0
18.10.2017 01:00:00 11,1 9,4 - - 9 5 - - NNW 1016,1 10 0,0
18.10.2017 00:00:00 11,1 9,8 - - 4 2 - - N 1016,3 10 0,0
17.10.2017 23:00:00 10,5 9,7 - - 4 2 - - NNE 1016,6 10 0,0
17.10.2017 22:00:00 10,8 9,6 - - 4 2 - - NNE 1016,9 10 0,0
17.10.2017 21:00:00 11,5 8,9 - - 4 2 - - E 1017,5 10 0,0
17.10.2017 20:00:00 11,7 9,2 - - 4 2 - - E 1017,3 10 0,0
17.10.2017 19:00:00 11,9 8,9 - - 4 2 - - SSW 1017,6 10 0,0
17.10.2017 18:00:00 12,3 8,9 - - 5 3 - - WSW 1017,7 10 0,0
17.10.2017 17:00:00 12,7 9,3 - - 8 4 - - W 1017,9 10 0,2
17.10.2017 16:00:00 13,4 7,8 - - 11 6 - - WSW 1018,5 10 0,0
17.10.2017 15:00:00 13,7 6,6 - - 15 8 - - SW 1018,8 10 0,0
17.10.2017 14:00:00 13,9 7,9 - - 13 7 - - SW - 10 0,0
17.10.2017 13:00:00 13,8 7,2 - - 15 8 - - SW - 10 0,0
17.10.2017 12:00:00 14,4 7,4 - - 15 8 - - WSW - 10 0,0
17.10.2017 11:00:00 14,1 7,6 - - 16 9 - - WSW - 10 0,0
17.10.2017 10:00:00 12,9 7,9 14,7 15,0 11 6 - - WSW 1020,5 10 0,0
17.10.2017 09:00:00 11,7 7,2 - - 13 7 - - SW 1020,3 10 0,0
17.10.2017 08:00:00 10,3 7,0 - - 13 7 - - SSW 1020,1 10 0,0
17.10.2017 07:00:00 10,5 7,1 - - 9 5 - - SW 1019,3 10 0,0
17.10.2017 06:00:00 11,3 7,2 - - 16 9 - - WSW 1019,1 10 0,0
17.10.2017 05:00:00 11,7 7,1 - - 16 9 - - WSW 1018,8 10 0,0
17.10.2017 04:00:00 12,2 7,3 - - 22 12 - - WSW 1018,8 10 0,0
17.10.2017 03:00:00 12,6 7,8 - - 18 10 - - SW 1018,8 10 0,0
17.10.2017 02:00:00 12,8 7,9 - - 22 12 - - WSW 1018,5 10 0,0
17.10.2017 01:00:00 13,1 7,5 - - 22 12 46 25 SW 1018,5 10 0,0
17.10.2017 00:00:00 13,4 7,1 - - 24 13 - - WSW 1018,4 10 0,0
16.10.2017 23:00:00 13,8 7,9 - - 21 11 46 25 SW 1017,7 10 0,0
16.10.2017 22:00:00 14,2 8,1 - - 26 14 - - SW 1017,2 10 0,0
16.10.2017 21:00:00 14,4 8,5 - - 26 14 - - SW 1016,9 10 0,0
16.10.2017 20:00:00 14,8 8,7 - - 26 14 - - SW 1016,7 10 0,0
16.10.2017 19:00:00 15,5 9,1 - - 24 13 - - SW 1016,3 10 -
16.10.2017 18:00:00 16,2 10,1 - - 22 12 - - SW 1015,7 10 0,0
16.10.2017 17:00:00 16,9 10,2 - - 29 16 54 29 SW 1015,3 10 0,0
16.10.2017 16:00:00 17,7 10,8 - - 29 16 59 32 SW 1014,9 10 0,0
16.10.2017 15:00:00 19,7 13,3 - - 35 19 50 27 SW 1014,4 10 0,0
16.10.2017 14:00:00 20,8 15,0 - - 21 11 - - SW 1014,3 10 0,0
16.10.2017 13:00:00 21,7 15,2 - - 18 10 - - SSW 1014,5 10 0,0
16.10.2017 12:00:00 21,8 14,6 - - 24 13 - - SSW 1014,4 10 0,0
16.10.2017 11:00:00 21,5 15,1 - - 18 10 - - S 1014,5 10 0,0
16.10.2017 10:00:00 18,8 15,9 14,7 15,0 11 6 - - SE 1014,3 10 0,0
16.10.2017 09:00:00 15,9 15,2 - - 13 7 - - SE 1014,9 10 0,0
16.10.2017 08:00:00 13,4 12,7 - - 9 5 - - ESE 1015,3 8 0,0
16.10.2017 07:00:00 12,9 12,7 - - 8 4 - - ESE 1015,8 8 0,0
16.10.2017 06:00:00 11,5 11,1 - - 2 1 - - ESE 1015,9 5 0,0
16.10.2017 05:00:00 10,6 10,2 - - 4 2 - - ESE 1016,3 4,8 0,0
16.10.2017 04:00:00 10,1 9,8 - - 2 1 - - SSE 1016,2 4,1 0,0
16.10.2017 03:00:00 9,8 9,4 - - 0 0 - - N 1016,5 4,5 0,0
16.10.2017 02:00:00 9,9 9,6 - - 2 1 - - SSE 1016,7 6 0,0
16.10.2017 01:00:00 10,6 10,3 - - 4 2 - - SSE 1016,8 1,7 0,0
16.10.2017 00:00:00 11,0 10,6 - - 2 1 - - SE 1017,0 4,0 0,0
15.10.2017 23:00:00 12,4 11,7 - - 5 3 - - SSE 1017,1 4,0 0,0
15.10.2017 22:00:00 12,7 11,8 - - 5 3 - - SSE 1017,3 5 0,0
15.10.2017 21:00:00 14,4 12,9 - - 2 1 - - S 1017,3 6 0,0
15.10.2017 20:00:00 15,0 12,9 - - 8 4 - - SSW 1017,5 8 0,0
15.10.2017 19:00:00 15,9 12,8 - - 13 7 - - SSW 1017,1 10 0,0
15.10.2017 18:00:00 17,1 13,0 - - 13 7 - - SSW 1016,8 10 0,0
15.10.2017 17:00:00 18,5 13,2 - - 18 10 - - SSW 1016,7 10 0,0
15.10.2017 16:00:00 19,4 13,3 - - 21 11 - - SSW 1016,8 10 0,0
15.10.2017 15:00:00 19,4 17,9 - - 22 12 - - SW 1017,1 10 0,0
15.10.2017 14:00:00 19,8 17,0 - - 22 12 - - SSW 1017,2 10 0,0
15.10.2017 13:00:00 19,8 14,9 - - 18 10 - - SW 1017,5 10 0,0
15.10.2017 12:00:00 17,6 13,8 - - 16 9 - - SW 1018,0 10 0,0
15.10.2017 11:00:00 16,3 14,8 - - 13 7 - - SSW 1018,2 8 0,0
15.10.2017 10:00:00 15,0 14,2 15,0 15,0 13 7 - - SSW 1018,3 8 0,0
15.10.2017 09:00:00 11,8 11,6 - - 4 2 - - SSE 1018,4 8 0,0
15.10.2017 08:00:00 8,5 8,3 - - 5 3 - - ESE 1018,3 8 0,0
15.10.2017 07:00:00 9,2 8,5 - - 5 3 - - ESE 1018,0 6 0,0
15.10.2017 06:00:00 8,0 7,9 - - 4 2 - - E 1018,7 10 0,0
15.10.2017 05:00:00 8,4 8,3 - - 2 1 - - WNW 1019,3 5 0,0
15.10.2017 04:00:00 8,5 8,5 - - 0 0 - - N 1019,9 2,1 0,0
15.10.2017 03:00:00 9,7 9,6 - - 2 1 - - W 1020,5 0,9 0,0
15.10.2017 02:00:00 11,7 11,6 - - 8 4 - - SE 1021,1 3,5 0,0
15.10.2017 01:00:00 12,3 12,0 - - 5 3 - - SE 1021,8 4,2 0,0
15.10.2017 00:00:00 13,0 12,6 - - 5 3 - - S 1022,2 6 0,0
14.10.2017 23:00:00 13,6 13,1 - - 8 4 - - S 1022,4 4,8 0,0
14.10.2017 22:00:00 14,5 13,7 - - 8 4 - - S 1022,7 8 0,0
14.10.2017 21:00:00 15,5 13,9 - - 9 5 - - S 1022,9 10 0,0
14.10.2017 20:00:00 17,4 12,9 - - 13 7 - - SSW 1023,3 10 0,0
14.10.2017 19:00:00 18,0 13,5 - - 9 5 - - SSW 1023,5 10 0,0
14.10.2017 18:00:00 18,3 13,8 - - 11 6 - - SW 1023,7 10 0,0
14.10.2017 17:00:00 18,8 14,0 - - 13 7 - - SW 1023,9 10 0,0
14.10.2017 16:00:00 19,0 14,5 - - 15 8 - - SW 1024,0 10 0,0
14.10.2017 15:00:00 19,3 15,0 - - 13 7 - - SW 1024,1 10 0,0
14.10.2017 14:00:00 19,7 14,1 - - 18 10 - - WSW 1024,1 10 0,0
14.10.2017 13:00:00 19,7 14,5 - - 18 10 - - WSW 1024,3 10 0,0
14.10.2017 12:00:00 19,3 15,2 - - 16 9 - - SW 1024,6 10 0,0
14.10.2017 11:00:00 18,4 14,8 - - 15 8 - - WSW 1024,7 10 0,0
14.10.2017 10:00:00 17,3 14,7 14,9 15,0 13 7 - - SW 1024,6 10 0,0
14.10.2017 09:00:00 16,4 14,5 - - 15 8 - - SW 1024,0 10 0,0
14.10.2017 08:00:00 15,6 14,3 - - 11 6 - - SW 1023,8 10 0,0
14.10.2017 07:00:00 16,0 14,4 - - 13 7 - - SW 1023,6 10 0,0
14.10.2017 06:00:00 16,1 14,4 - - 15 8 - - SW 1023,7 10 0,0
14.10.2017 05:00:00 16,2 14,4 - - 13 7 - - SW 1023,5 10 0,0
14.10.2017 04:00:00 16,2 14,3 - - 16 9 - - SW 1023,5 10 0,0
14.10.2017 03:00:00 15,9 14,2 - - 9 5 - - SW 1023,4 10 0,0
14.10.2017 02:00:00 15,8 13,9 - - 13 7 - - SW 1023,4 10 0,0
14.10.2017 01:00:00 16,6 14,1 - - 16 9 - - SW 1023,6 10 0,0
14.10.2017 00:00:00 16,5 14,1 - - 18 10 - - SW 1023,6 10 0,0
13.10.2017 23:00:00 16,4 14,2 - - 18 10 - - WSW 1023,2 10 0,0
13.10.2017 22:00:00 16,5 14,2 - - 16 9 - - SW 1022,9 10 0,0
13.10.2017 21:00:00 16,6 14,3 - - 16 9 - - SW 1023,0 10 0,0
13.10.2017 20:00:00 16,5 14,2 - - 15 8 - - SW 1023,0 10 0,0
13.10.2017 19:00:00 17,4 14,3 - - 18 10 - - SW 1022,6 10 0,0
13.10.2017 18:00:00 17,9 14,7 - - 18 10 - - SW 1022,3 10 0,0
13.10.2017 17:00:00 18,3 14,5 - - 22 12 - - WSW 1022,1 10 0,0
13.10.2017 16:00:00 18,3 14,7 - - 22 12 - - SW 1021,8 10 0,0
13.10.2017 15:00:00 18,6 14,8 - - 21 11 - - SW 1021,9 10 0,0
13.10.2017 14:00:00 18,7 14,8 - - 22 12 - - WSW 1022,0 10 0,0
13.10.2017 13:00:00 18,4 14,9 - - 26 14 - - WSW 1021,9 10 0,0
13.10.2017 12:00:00 18,3 15,3 - - 24 13 - - WSW 1022,0 10 0,0
13.10.2017 11:00:00 17,9 15,5 - - 21 11 - - SW 1021,8 10 0,0
13.10.2017 10:00:00 17,4 15,0 14,4 15,0 21 11 - - SW 1021,6 10 0,0
13.10.2017 09:00:00 16,5 15,0 - - 16 9 - - SW 1021,4 10 0,0
13.10.2017 08:00:00 15,6 14,5 - - 15 8 - - SW 1020,9 8 0,0
13.10.2017 07:00:00 15,1 13,7 - - 13 7 - - SSW 1020,9 10 0,0
13.10.2017 06:00:00 14,4 13,1 - - 11 6 - - SSW 1020,8 10 0,0
13.10.2017 05:00:00 13,6 12,5 - - 15 8 - - SSW 1021,2 10 0,0
13.10.2017 04:00:00 12,4 11,8 - - 11 6 - - SSW 1021,5 10 0,0
13.10.2017 03:00:00 11,7 11,4 - - 8 4 - - SW 1021,3 10 0,0
13.10.2017 02:00:00 10,3 9,9 - - 5 3 - - SSW 1021,5 8 0,0
13.10.2017 01:00:00 10,4 9,8 - - 8 4 - - SSW 1021,4 10 0,0
13.10.2017 00:00:00 10,5 9,7 - - 5 3 - - SSW 1021,6 10 0,0
12.10.2017 23:00:00 11,2 9,8 - - 11 6 - - SW 1021,8 10 0,0
12.10.2017 22:00:00 11,9 9,8 - - 11 6 - - SW 1021,9 10 0,0
12.10.2017 21:00:00 12,7 9,4 - - 11 6 - - SW 1021,6 10 0,0
12.10.2017 20:00:00 13,3 9,0 - - 11 6 - - SW 1021,5 10 0,0
12.10.2017 19:00:00 14,4 9,6 - - 11 6 - - SW 1021,3 10 0,0
12.10.2017 18:00:00 15,4 9,1 - - 13 7 - - WSW 1021,0 10 0,0
12.10.2017 17:00:00 17,0 8,6 - - 18 10 - - WSW 1020,8 10 0,0
12.10.2017 16:00:00 16,8 8,8 - - 18 10 - - W 1020,8 10 0,0
12.10.2017 15:00:00 16,7 9,1 - - 18 10 - - WSW 1021,2 10 0,0
12.10.2017 14:00:00 17,3 9,2 - - 21 11 - - W 1021,2 10 0,0
12.10.2017 13:00:00 16,3 10,0 - - 22 12 - - W 1021,4 10 0,0
12.10.2017 12:00:00 15,5 10,3 - - 21 11 - - WSW 1021,4 10 0,0
12.10.2017 11:00:00 14,3 10,6 - - 16 9 - - WSW 1021,2 10 0,0
12.10.2017 10:00:00 13,2 10,5 14,5 15,0 11 6 - - WSW 1020,6 10 0,0

tt = Température de l'air
td = dewpoint
tt -20cm = Température de l'air -20cm
tt -100cm = Température de l'air -100cm
ff = Vitesse du vent
fx = gusts
dd = Direction du vent
ppp = reduced air pressure
vv = visibility
rr = Quantités de précipitations

stations d'obs. à proximité